Total_Precipitation_Accumulation
0.23 0.21 0.17 0.15 0.12 0.10 0.09 0.10 0.25 0.50 0.72 1.02 1.18 1.14 1.13 1.07 0.83 0.61 0.50 0.50 0.54 0.56 0.49 0.42 0.38 0.34 0.31 0.30 0.27 0.25 0.25 0.26 0.26 0.26 0.26 0.27 0.29 0.30 0.30 0.29 0.26 0.23 0.20 0.16
0.17 0.14 0.17 0.21 0.20 0.20 0.23 0.27 0.37 0.61 0.91 1.34 1.46 1.32 1.27 1.21 1.00 0.79 0.70 0.68 0.66 0.63 0.59 0.55 0.51 0.47 0.43 0.40 0.38 0.37 0.38 0.39 0.39 0.38 0.38 0.36 0.33 0.29 0.25 0.21 0.16 0.12 0.09 0.06
0.23 0.17 0.22 0.37 0.32 0.26 0.30 0.38 0.50 0.71 0.93 1.13 1.24 1.29 1.31 1.37 1.25 1.02 0.89 0.84 0.80 0.76 0.72 0.68 0.65 0.61 0.57 0.54 0.51 0.49 0.49 0.49 0.48 0.45 0.39 0.31 0.22 0.16 0.13 0.10 0.08 0.06 0.04 0.03
0.17 0.21 0.44 0.42 0.21 0.23 0.34 0.37 0.46 0.53 0.65 0.83 0.89 0.96 1.01 1.05 1.02 0.95 0.88 0.86 0.84 0.83 0.82 0.77 0.71 0.66 0.62 0.59 0.55 0.53 0.51 0.48 0.43 0.35 0.27 0.18 0.12 0.09 0.08 0.07 0.06 0.04 0.03 0.03
0.14 0.25 0.41 0.36 0.18 0.16 0.33 0.51 0.49 0.49 0.46 0.50 0.53 0.56 0.71 0.82 0.80 0.83 0.89 0.91 0.90 0.88 0.81 0.73 0.66 0.61 0.60 0.59 0.55 0.49 0.43 0.34 0.25 0.17 0.12 0.08 0.07 0.07 0.06 0.05 0.04 0.03 0.03 0.04
0.16 0.27 0.44 0.44 0.18 0.11 0.26 0.68 0.66 0.61 0.56 0.58 0.63 0.64 0.64 0.67 0.66 0.69 0.71 0.72 0.68 0.61 0.55 0.52 0.51 0.48 0.45 0.41 0.34 0.28 0.19 0.13 0.10 0.07 0.05 0.05 0.05 0.05 0.04 0.04 0.04 0.04 0.04 0.05
0.20 0.33 0.41 0.18 0.07 0.17 0.48 0.71 0.71 0.62 0.55 0.58 0.69 0.63 0.48 0.46 0.49 0.51 0.51 0.50 0.45 0.41 0.40 0.38 0.34 0.30 0.25 0.20 0.16 0.11 0.07 0.05 0.04 0.03 0.02 0.02 0.03 0.03 0.03 0.04 0.06 0.06 0.07 0.07
0.27 0.39 0.43 0.15 0.11 0.27 0.39 0.43 0.48 0.43 0.41 0.40 0.34 0.27 0.23 0.24 0.28 0.31 0.32 0.30 0.27 0.25 0.23 0.20 0.17 0.14 0.13 0.10 0.07 0.04 0.03 0.03 0.03 0.02 0.01 0.01 0.03 0.04 0.04 0.06 0.08 0.09 0.09 0.09
0.24 0.36 0.32 0.17 0.16 0.21 0.28 0.38 0.34 0.26 0.19 0.15 0.12 0.11 0.11 0.13 0.16 0.18 0.18 0.18 0.16 0.13 0.12 0.13 0.12 0.11 0.10 0.08 0.06 0.05 0.06 0.05 0.03 0.03 0.02 0.02 0.04 0.05 0.06 0.08 0.08 0.06 0.07 0.08
0.09 0.19 0.19 0.17 0.16 0.17 0.19 0.24 0.21 0.17 0.13 0.07 0.05 0.07 0.09 0.11 0.11 0.11 0.12 0.11 0.11 0.10 0.11 0.12 0.12 0.12 0.12 0.10 0.09 0.11 0.12 0.08 0.05 0.05 0.05 0.05 0.06 0.05 0.06 0.08 0.06 0.06 0.08 0.08
0.08 0.14 0.19 0.24 0.17 0.12 0.13 0.14 0.14 0.14 0.12 0.06 0.03 0.05 0.07 0.09 0.09 0.10 0.11 0.11 0.10 0.12 0.12 0.09 0.08 0.09 0.09 0.10 0.12 0.15 0.14 0.09 0.05 0.04 0.06 0.07 0.09 0.06 0.04 0.05 0.01 0.02 0.04 0.04
0.11 0.13 0.21 0.28 0.19 0.12 0.16 0.17 0.17 0.14 0.11 0.09 0.06 0.05 0.06 0.08 0.10 0.10 0.09 0.08 0.08 0.08 0.06 0.05 0.05 0.06 0.06 0.08 0.09 0.10 0.11 0.07 0.04 0.03 0.05 0.06 0.09 0.10 0.04 0.01 0.00 0.00 0.00 0.01
0.06 0.06 0.10 0.11 0.10 0.10 0.13 0.17 0.19 0.17 0.14 0.11 0.10 0.09 0.10 0.10 0.08 0.07 0.06 0.06 0.06 0.03 0.02 0.02 0.02 0.04 0.04 0.04 0.04 0.05 0.06 0.03 0.02 0.03 0.04 0.06 0.08 0.14 0.16 0.07 0.01 0.01 0.01 0.01
0.02 0.03 0.06 0.09 0.12 0.11 0.14 0.18 0.17 0.15 0.17 0.18 0.15 0.11 0.09 0.07 0.05 0.04 0.04 0.02 0.01 0.01 0.01 0.02 0.02 0.02 0.01 0.02 0.02 0.02 0.02 0.01 0.01 0.03 0.03 0.04 0.05 0.07 0.10 0.14 0.14 0.09 0.04 0.02
0.02 0.04 0.08 0.13 0.18 0.16 0.18 0.20 0.19 0.15 0.15 0.16 0.11 0.07 0.05 0.04 0.03 0.02 0.01 0.01 0.01 0.01 0.01 0.00 0.00 0.00 0.00 0.00 0.01 0.01 0.01 0.02 0.01 0.01 0.01 0.02 0.03 0.03 0.03 0.06 0.11 0.14 0.11 0.06
0.04 0.05 0.08 0.14 0.21 0.21 0.22 0.23 0.18 0.13 0.09 0.07 0.05 0.04 0.03 0.02 0.01 0.01 0.01 0.01 0.01 0.00 0.00 0.00 0.00 0.00 0.00 0.00 0.00 0.01 0.01 0.01 0.01 0.00 0.00 0.01 0.01 0.01 0.01 0.03 0.06 0.09 0.09 0.06
0.06 0.07 0.08 0.11 0.15 0.17 0.15 0.11 0.08 0.06 0.04 0.03 0.03 0.02 0.01 0.01 0.01 0.01 0.01 0.00 0.00 0.00 0.00 0.00 0.00 0.00 0.00 0.00 0.00 0.00 0.01 0.00 0.00 0.00 0.00 0.00 0.00 0.00 0.01 0.01 0.03 0.04 0.04 0.04
0.10 0.09 0.08 0.08 0.09 0.09 0.06 0.04 0.03 0.02 0.02 0.01 0.01 0.00 0.01 0.01 0.01 0.00 0.00 0.00 0.00 0.00 0.00 0.00 0.00 0.00 0.00 0.00 0.00 0.00 0.00 0.00 0.00 0.00 0.00 0.00 0.00 0.00 0.01 0.01 0.02 0.03 0.04 0.05
0.06 0.04 0.04 0.04 0.03 0.03 0.02 0.02 0.02 0.01 0.00 0.00 0.00 0.00 0.00 0.00 0.00 0.00 0.00 0.00 0.00 0.00 0.00 0.00 0.00 0.00 0.00 0.00 0.00 0.00 0.00 0.00 0.00 0.00 0.00 0.00 0.00 0.00 0.00 0.01 0.01 0.02 0.03 0.05
0.01 0.01 0.01 0.02 0.01 0.01 0.01 0.01 0.00 0.00 0.00 0.00 0.00 0.00 0.00 0.00 0.00 0.00 0.00 0.00 0.00 0.00 0.00 0.00 0.00 0.00 0.00 0.00 0.00 0.00 0.00 0.00 0.00 0.00 0.00 0.00 0.00 0.00 0.00 0.00 0.01 0.02 0.03 0.04
0.01 0.01 0.01 0.01 0.01 0.00 0.00 0.00 0.00 0.00 0.00 0.00 0.00 0.00 0.00 0.00 0.00 0.00 0.00 0.00 0.00 0.00 0.00 0.00 0.00 0.00 0.00 0.00 0.00 0.00 0.00 0.00 0.00 0.00 0.00 0.00 0.00 0.00 0.00 0.00 0.01 0.01 0.02 0.03
0.01 0.00 0.00 0.00 0.00 0.00 0.00 0.00 0.00 0.00 0.00 0.00 0.00 0.00 0.00 0.00 0.00 0.00 0.00 0.00 0.00 0.00 0.00 0.00 0.00 0.00 0.00 0.00 0.00 0.00 0.00 0.00 0.00 0.00 0.00 0.00 0.00 0.00 0.01 0.01 0.01 0.01 0.02 0.03
0.02 0.01 0.00 0.00 0.00 0.00 0.00 0.00 0.00 0.00 0.00 0.00 0.00 0.00 0.00 0.00 0.00 0.00 0.00 0.00 0.00 0.00 0.00 0.00 0.00 0.00 0.00 0.00 0.00 0.00 0.00 0.00 0.00 0.00 0.00 0.00 0.00 0.00 0.00 0.00 0.00 0.01 0.01 0.01
0.05 0.02 0.00 0.00 0.00 0.00 0.00 0.00 0.00 0.00 0.00 0.00 0.00 0.00 0.00 0.00 0.00 0.00 0.00 0.00 0.00 0.00 0.00 0.00 0.00 0.00 0.00 0.00 0.00 0.00 0.00 0.00 0.00 0.00 0.00 0.00 0.00 0.00 0.00 0.00 0.00 0.00 0.00 0.00
0.04 0.02 0.01 0.00 0.00 0.00 0.00 0.00 0.00 0.00 0.00 0.00 0.00 0.00 0.00 0.00 0.00 0.00 0.00 0.00 0.00 0.00 0.00 0.00 0.00 0.00 0.00 0.00 0.00 0.00 0.00 0.00 0.00 0.00 0.00 0.00 0.00 0.00 0.00 0.00 0.00 0.00 0.00 0.00
0.08 0.06 0.02 0.01 0.01 0.00 0.00 0.00 0.00 0.00 0.00 0.00 0.00 0.00 0.00 0.00 0.00 0.00 0.00 0.00 0.00 0.00 0.00 0.00 0.00 0.00 0.00 0.00 0.00 0.00 0.00 0.00 0.00 0.00 0.00 0.00 0.00 0.00 0.00 0.00 0.00 0.00 0.00 0.00
0.15 0.12 0.06 0.05 0.05 0.01 0.00 0.00 0.00 0.00 0.00 0.00 0.00 0.00 0.00 0.00 0.00 0.00 0.00 0.00 0.00 0.00 0.00 0.00 0.00 0.00 0.00 0.00 0.00 0.00 0.00 0.00 0.00 0.00 0.00 0.00 0.00 0.00 0.00 0.00 0.00 0.00 0.00 0.00